• In Germany
  • List of Countries
  • For 7 days
  • Water Temperature
  • Satellite Maps
  • Weather Map
  • Weather Widgets
  • user-avatar
    Login

    Hourly Weather Ali Bayramli

    Today, 25 September, Monday

    Time Temperature Precipitation Wind Pressure Humidity
    00:00 +23°C° 0 mm 4 mps 763 mmHg 57%
    01:00 +23°C° 0 mm 4 mps 763 mmHg 57%
    02:00 +23°C° 0 mm 4 mps 763 mmHg 57%
    03:00 +23°C° 0 mm 4 mps 762 mmHg 57%
    04:00 +22°C° 0 mm 3 mps 762 mmHg 58%
    05:00 +22°C° 0 mm 3 mps 762 mmHg 59%
    06:00 +23°C° 0 mm 2 mps 762 mmHg 59%
    07:00 +24°C° 0 mm 2 mps 763 mmHg 55%
    08:00 +25°C° 0 mm 2 mps 763 mmHg 51%
    09:00 +26°C° 0 mm 2 mps 763 mmHg 50%
    10:00 +27°C° 0 mm 2 mps 763 mmHg 47%
    11:00 +28°C° 0 mm 3 mps 763 mmHg 44%
    12:00 +29°C° 0 mm 3 mps 763 mmHg 42%
    13:00 +30°C° 0 mm 4 mps 762 mmHg 40%
    14:00 +30°C° 0 mm 5 mps 762 mmHg 38%
    15:00 +30°C° 0 mm 6 mps 762 mmHg 37%
    16:00 +29°C° 0 mm 7 mps 762 mmHg 38%
    17:00 +28°C° 0 mm 7 mps 762 mmHg 40%
    18:00 +27°C° 0 mm 8 mps 763 mmHg 41%
    19:00 +26°C° 0 mm 8 mps 763 mmHg 43%
    20:00 +26°C° 0 mm 8 mps 763 mmHg 45%
    21:00 +24°C° 0 mm 8 mps 763 mmHg 47%
    22:00 +23°C° 0 mm 7 mps 763 mmHg 49%
    23:00 +23°C° 0 mm 7 mps 763 mmHg 51%

    Tomorrow, 26 September, Tuesday

    Time Temperature Precipitation Wind Pressure Humidity
    00:00 +22°C° 0 mm 7 mps 763 mmHg 53%
    01:00 +22°C° 0 mm 6 mps 763 mmHg 55%
    02:00 +21°C° 0 mm 6 mps 763 mmHg 57%
    03:00 +21°C° 0 mm 5 mps 763 mmHg 59%
    04:00 +21°C° 0 mm 5 mps 762 mmHg 61%
    05:00 +20°C° 0 mm 4 mps 762 mmHg 63%
    06:00 +20°C° 0 mm 4 mps 762 mmHg 65%
    07:00 +21°C° 0 mm 4 mps 762 mmHg 61%
    08:00 +23°C° 0 mm 5 mps 763 mmHg 56%
    09:00 +25°C° 0 mm 5 mps 763 mmHg 51%
    10:00 +25°C° 0 mm 5 mps 762 mmHg 49%
    11:00 +26°C° 0 mm 5 mps 762 mmHg 48%
    12:00 +26°C° 0 mm 5 mps 762 mmHg 46%
    13:00 +26°C° 0 mm 6 mps 762 mmHg 46%
    14:00 +26°C° 0 mm 7 mps 762 mmHg 47%
    15:00 +26°C° 0 mm 7 mps 761 mmHg 48%
    16:00 +24°C° 0 mm 7 mps 762 mmHg 50%
    17:00 +23°C° 0 mm 8 mps 762 mmHg 52%
    18:00 +22°C° 0 mm 8 mps 762 mmHg 55%
    19:00 +22°C° 0 mm 8 mps 762 mmHg 55%
    20:00 +22°C° 0 mm 7 mps 763 mmHg 55%
    21:00 +21°C° 0 mm 7 mps 763 mmHg 56%
    22:00 +21°C° 0 mm 7 mps 763 mmHg 56%
    23:00 +21°C° 0 mm 7 mps 762 mmHg 57%

    Day after tomorrow, 27 September, Wednesday

    Time Temperature Precipitation Wind Pressure Humidity
    00:00 +20°C° 0 mm 7 mps 762 mmHg 57%
    01:00 +20°C° 0 mm 6 mps 762 mmHg 58%
    02:00 +20°C° 0 mm 6 mps 762 mmHg 58%
    03:00 +20°C° 0 mm 6 mps 761 mmHg 58%
    04:00 +20°C° 0.1 mm 6 mps 761 mmHg 60%
    05:00 +20°C° 0.1 mm 5 mps 761 mmHg 62%
    06:00 +20°C° 0.1 mm 5 mps 761 mmHg 63%
    07:00 +20°C° 0.1 mm 6 mps 762 mmHg 65%
    08:00 +20°C° 0.1 mm 6 mps 762 mmHg 66%
    09:00 +19°C° 0.1 mm 6 mps 762 mmHg 68%
    10:00 +20°C° 0.1 mm 7 mps 762 mmHg 67%
    11:00 +20°C° 0.1 mm 7 mps 762 mmHg 67%
    12:00 +20°C° 0.1 mm 7 mps 762 mmHg 66%
    13:00 +20°C° 0.1 mm 8 mps 762 mmHg 65%
    14:00 +20°C° 0.1 mm 8 mps 762 mmHg 65%
    15:00 +20°C° 0.1 mm 8 mps 762 mmHg 64%
    16:00 +18°C° 0.1 mm 8 mps 762 mmHg 64%
    17:00 +18°C° 0.1 mm 8 mps 762 mmHg 65%
    18:00 +18°C° 0.1 mm 8 mps 762 mmHg 65%
    19:00 +18°C° 0.5 mm 7 mps 762 mmHg 68%
    20:00 +18°C° 0.5 mm 7 mps 763 mmHg 70%
    21:00 +18°C° 0.5 mm 7 mps 763 mmHg 73%
    22:00 +18°C° 0.8 mm 7 mps 763 mmHg 74%
    23:00 +18°C° 0.8 mm 7 mps 763 mmHg 74%

    28 September, Thursday

    Time Temperature Precipitation Wind Pressure Humidity
    00:00 +17°C° 0.8 mm 7 mps 763 mmHg 75%
    01:00 +17°C° 0.5 mm 7 mps 763 mmHg 75%
    02:00 +17°C° 0.5 mm 7 mps 763 mmHg 74%
    03:00 +17°C° 0.5 mm 7 mps 763 mmHg 74%
    04:00 +17°C° 0.3 mm 7 mps 763 mmHg 74%
    05:00 +17°C° 0.3 mm 7 mps 763 mmHg 74%
    06:00 +17°C° 0.3 mm 7 mps 763 mmHg 73%
    07:00 +17°C° 0.2 mm 7 mps 764 mmHg 73%
    08:00 +17°C° 0.2 mm 8 mps 764 mmHg 73%
    09:00 +17°C° 0.2 mm 8 mps 764 mmHg 72%
    10:00 +17°C° 0.3 mm 8 mps 764 mmHg 71%
    11:00 +17°C° 0.3 mm 8 mps 765 mmHg 70%
    12:00 +17°C° 0.3 mm 8 mps 765 mmHg 69%
    13:00 +17°C° 0.2 mm 8 mps 765 mmHg 68%
    14:00 +17°C° 0.2 mm 8 mps 765 mmHg 67%
    15:00 +17°C° 0.2 mm 9 mps 765 mmHg 66%
    16:00 +17°C° 0.2 mm 8 mps 765 mmHg 65%
    17:00 +17°C° 0.2 mm 8 mps 766 mmHg 64%
    18:00 +17°C° 0.2 mm 8 mps 766 mmHg 63%
    19:00 +17°C° 0.1 mm 7 mps 766 mmHg 64%
    20:00 +17°C° 0.1 mm 7 mps 766 mmHg 65%
    21:00 +17°C° 0.1 mm 6 mps 766 mmHg 66%
    22:00 +17°C° 0.1 mm 6 mps 766 mmHg 65%
    23:00 +17°C° 0.1 mm 5 mps 766 mmHg 65%

    29 September, Friday

    Time Temperature Precipitation Wind Pressure Humidity
    00:00 +17°C° 0.1 mm 5 mps 766 mmHg 64%
    01:00 +17°C° 0 mm 5 mps 765 mmHg 63%
    02:00 +17°C° 0 mm 5 mps 765 mmHg 62%
    03:00 +18°C° 0 mm 4 mps 765 mmHg 60%
    04:00 +18°C° 0 mm 4 mps 765 mmHg 59%
    05:00 +19°C° 0 mm 4 mps 765 mmHg 59%
    06:00 +19°C° 0 mm 3 mps 765 mmHg 58%
    07:00 +19°C° 0 mm 3 mps 765 mmHg 57%
    08:00 +19°C° 0 mm 3 mps 765 mmHg 55%
    09:00 +20°C° 0 mm 3 mps 765 mmHg 54%
    10:00 +20°C° 0 mm 3 mps 764 mmHg 54%
    11:00 +21°C° 0 mm 3 mps 764 mmHg 53%
    12:00 +21°C° 0 mm 3 mps 764 mmHg 53%
    13:00 +21°C° 0 mm 3 mps 763 mmHg 53%
    14:00 +21°C° 0 mm 3 mps 763 mmHg 53%
    15:00 +22°C° 0 mm 4 mps 762 mmHg 53%
    16:00 +21°C° 0 mm 4 mps 762 mmHg 54%
    17:00 +21°C° 0 mm 3 mps 762 mmHg 56%
    18:00 +21°C° 0 mm 3 mps 762 mmHg 57%
    19:00 +21°C° 0 mm 3 mps 762 mmHg 58%
    20:00 +21°C° 0 mm 3 mps 762 mmHg 59%
    21:00 +21°C° 0 mm 3 mps 762 mmHg 61%
    22:00 +21°C° 0 mm 3 mps 762 mmHg 61%
    23:00 +21°C° 0 mm 3 mps 761 mmHg 61%

    30 September, Saturday

    Time Temperature Precipitation Wind Pressure Humidity
    00:00 +21°C° 0 mm 2 mps 761 mmHg 61%
    01:00 +21°C° 0 mm 2 mps 761 mmHg 61%
    02:00 +20°C° 0 mm 2 mps 760 mmHg 61%
    03:00 +20°C° 0 mm 2 mps 760 mmHg 61%
    04:00 +20°C° 0.1 mm 2 mps 760 mmHg 61%
    05:00 +20°C° 0.1 mm 2 mps 760 mmHg 61%
    06:00 +20°C° 0.1 mm 2 mps 759 mmHg 62%
    07:00 +21°C° 0.1 mm 2 mps 759 mmHg 60%
    08:00 +23°C° 0.1 mm 2 mps 759 mmHg 59%
    09:00 +22°C° 0.1 mm 3 mps 759 mmHg 57%
    10:00 +24°C° 0.1 mm 3 mps 758 mmHg 56%
    11:00 +25°C° 0.1 mm 3 mps 758 mmHg 55%
    12:00 +25°C° 0.1 mm 3 mps 757 mmHg 54%
    13:00 +25°C° 0.1 mm 3 mps 757 mmHg 55%
    14:00 +25°C° 0.1 mm 3 mps 757 mmHg 55%
    15:00 +25°C° 0.1 mm 3 mps 756 mmHg 55%
    16:00 +25°C° 0 mm 2 mps 756 mmHg 57%
    17:00 +24°C° 0 mm 2 mps 756 mmHg 59%
    18:00 +24°C° 0 mm 2 mps 757 mmHg 60%
    19:00 +24°C° 0 mm 2 mps 757 mmHg 61%
    20:00 +23°C° 0 mm 2 mps 757 mmHg 62%
    21:00 +22°C° 0 mm 3 mps 757 mmHg 63%
    22:00 +22°C° 0 mm 3 mps 757 mmHg 63%
    23:00 +21°C° 0 mm 3 mps 757 mmHg 64%
    Show more